Weather History for Crestview, FL

Change the Weather History Date:

Saturday, June 15, 2013

  Actual Average Record
Temperature  
Mean Temperature 81 °F -  
Max Temperature 95 °F 90 °F 102 °F (1952)
Min Temperature 69 °F 67 °F 63 °F (1983)
Cooling Degree Days 16    
Growing Degree Days 31 (Base 50)    
Moisture  
Dew Point 70 °F    
Average Humidity 69    
Maximum Humidity 91    
Minimum Humidity 40    
Precipitation  
Precipitation 0.00 in - - ()
Sea Level Pressure  
Sea Level Pressure 30.00 in    
Wind  
Wind Speed 3 mph (East)    
Max Wind Speed 10 mph    
Max Gust Speed -    
Visibility 10 miles    
Events      
Averages and records for this station are not official NWS values.
T = Trace of Precipitation, MM = Missing Value Source: NWS Daily Summary

Daily Weather History Graph

Daily Weather History Graph

Search for Another Location

Airport:

Trip Planner

Search our weather history database for the weather conditions in past years. The results will help you decide how hot, cold, wet, or windy it might be!

Date:

Astronomy

Jun. 15, 2013 Rise Set
Actual Time 5:42 AM CDT 7:50 PM CDT
Civil Twilight 5:14 AM CDT 8:18 PM CDT
Nautical Twilight 4:41 AM CDT 8:52 PM CDT
Astronomical Twilight 4:04 AM CDT 9:28 PM CDT
Moon 11:53 AM CDT (6/15) No Moon Set
Length of Visible Light 15h 03m
Length of Day
14h 07m
Waxing Crescent, 40% of the Moon is Illuminated
Jun 15
Waxing Crescent
Jun 16
First Quarter
Jun 23
Full
Jun 29
Last Quarter
Jul 8
New

Hourly Weather History & Observations

Time (CDT) Temp. Heat Index Dew Point Humidity Pressure Visibility Wind Dir Wind Speed Gust Speed Precip Events Conditions
12:53 AM 72.0 °F - 66.9 °F 84% 29.95 in 10.0 mi Calm Calm - N/A   Partly Cloudy
1:53 AM 73.9 °F - 64.9 °F 73% 29.95 in 10.0 mi North 3.5 mph - 0.00 in   Clear
2:53 AM 72.0 °F - 64.9 °F 78% 29.95 in 10.0 mi Calm Calm - N/A   Partly Cloudy
3:53 AM 70.0 °F - 64.9 °F 84% 29.94 in 10.0 mi Calm Calm - N/A   Partly Cloudy
4:53 AM 69.1 °F - 64.0 °F 84% 29.96 in 10.0 mi Calm Calm - N/A   Clear
5:53 AM 71.1 °F - 64.0 °F 78% 29.99 in 10.0 mi NE 4.6 mph - N/A   Clear
6:53 AM 73.0 °F - 66.0 °F 79% 30.00 in 10.0 mi ENE 4.6 mph - N/A   Clear
7:53 AM 78.1 °F - 69.1 °F 74% 30.02 in 10.0 mi Variable 4.6 mph - N/A   Scattered Clouds
8:53 AM 84.0 °F 89.0 °F 71.1 °F 65% 30.03 in 10.0 mi East 10.4 mph - N/A   Mostly Cloudy
9:53 AM 87.1 °F 93.6 °F 72.0 °F 61% 30.03 in 10.0 mi ESE 8.1 mph - N/A   Partly Cloudy
10:53 AM 89.1 °F 96.0 °F 72.0 °F 57% 30.03 in 10.0 mi Variable 5.8 mph - N/A   Clear
11:53 AM 90.0 °F 92.8 °F 66.9 °F 46% 30.03 in 10.0 mi Calm Calm - N/A   Overcast
12:53 PM 93.9 °F 97.0 °F 66.0 °F 40% 30.01 in 10.0 mi NE 4.6 mph - N/A   Scattered Clouds
1:53 PM 91.9 °F 95.4 °F 66.9 °F 44% 30.01 in 10.0 mi ESE 4.6 mph - N/A   Mostly Cloudy
2:53 PM 91.9 °F 96.9 °F 69.1 °F 47% 30.00 in 10.0 mi Calm Calm - N/A   Mostly Cloudy
3:53 PM 91.9 °F 98.4 °F 71.1 °F 50% 29.99 in 10.0 mi SSE 5.8 mph - N/A   Mostly Cloudy
4:53 PM 88.0 °F 95.6 °F 73.0 °F 61% 29.99 in 10.0 mi Variable 6.9 mph - N/A   Mostly Cloudy
5:53 PM 86.0 °F 95.1 °F 75.0 °F 70% 29.99 in 10.0 mi Variable 4.6 mph - N/A   Overcast
6:53 PM 84.0 °F 91.9 °F 75.0 °F 74% 29.99 in 10.0 mi Calm Calm - N/A   Scattered Clouds
7:53 PM 82.9 °F 89.4 °F 73.9 °F 74% 30.01 in 10.0 mi SSE 3.5 mph - N/A   Clear
8:53 PM 81.0 °F 86.2 °F 73.9 °F 79% 30.01 in 10.0 mi South 3.5 mph - N/A   Partly Cloudy
9:53 PM 79.0 °F - 73.9 °F 84% 30.04 in 8.0 mi Calm Calm - N/A   Mostly Cloudy
10:53 PM 78.1 °F - 73.9 °F 87% 30.05 in 8.0 mi Calm Calm - N/A   Mostly Cloudy
11:53 PM 75.9 °F - 73.0 °F 91% 30.05 in 6.0 mi Calm Calm - N/A   Partly Cloudy